OPS 4682 DEB, 38457

Orbit data source: Space-Track

OPS 4682 DEB, 38457 is space debris in LEO originally from a launch on Sat, 03 Apr 1965 UTC launched from the Air Force Western Test Range (AFWTR). Debris objects in space refer to the collection of defunct objects orbiting the Earth. Examples of debris include non-operational satellites, rocket bodies, and fragments generated from explosions, collisions, or faulty payload assembly.

Loading next visibility...
Identifier
38457, 1965-027FN
Orbit
LEO
Country
Flag of USUS
Related business
Manufacturer
Unknown
Mission
Spacecraft
Bus & Motor
Unknown
Mass
Unknown
Launch date (UTC)
1965-04-03 (61 years ago)
Launch vehicle
Unknown
Launch site
Air Force Western Test Range (AFWTR)
Object type
Payload
Rocket body
Debris
Shape & HBR
Unknown shape, 0.1 m
Radar Cross Section
Small (<0.1 m²)

Expand to show TLE details & history
Last TLE update: 5 days ago

TLE from 5 days ago
0 OPS 4682 DEB
1 38457U 65027FN  26127.38216155 -.00000230  00000-0 -80526-3 0  9997
2 38457  90.2354   1.4142 0032200 124.9441 235.4712 12.98525286606460
Epoch: 2026-05-07T09:10Z
TLE epoch observation values (Epoch: 2026-05-07T09:10:18.757Z)
Latitude
-0.00006°
Longitude
-1.39306°
Altitude
1,284.763 km
Speed
7.207 km/s
True Right ascension
00h 05m 39s
True Declination
0° 00' 00"
Sunlit
Object was in daylight at epoch
Visualization orbit readout
Latitude
Unknown
Longitude
Unknown
Altitude
Unknown
Speed
Unknown
Apparent Right ascension
Unknown
Apparent Declination
Unknown
Sunlit
N/A
Visualization observer readout
Local Sidereal Time
17:26:46
Azimuth
Unknown
Elevation
Unknown
Doppler factor
Unknown
Orbital elements
Apogee altitude
1,289.61 km
Perigee altitude
1,240.388 km
Semi-major axis
7,643.136 km
Eccentricity
0.00322
Inclination
90.2354°
RAAN
1.4142°
Arg. of periapsis
124.9441°
True anomaly
235.16791°
Mean anomaly
235.4712°
Eccentric anomaly
235.31948°
Mean motion
3.24815 °/min
Orbital period
110.83 mins
BSTAR
-0.00080526
Loading maneuver chart data...
Computing Atmospheric mass density...
Loading historical data...
Loading historical data...
Loading historical data...
Loading historical data...
Loading historical data...
Loading historical data...
Loading historical data...

Documentation

Showing up to 5 results
|